Theta_e
314 314 315 316 317 314 315 314 316 316 313 313 312 309 310 312 313 316 317 321 324 326 326 327 327 328 327 326 326 325 323 323 321 317 315 313 308 307 302 302 302 298 296 299
316 314 315 317 316 315 315 314 313 313 313 310 310 311 311 312 316 318 319 319 320 322 323 324 324 323 324 325 324 322 321 320 317 314 311 308 305 302 301 299 297 296 301 300
315 311 313 312 313 314 313 313 313 314 312 309 310 309 309 311 313 314 315 317 317 317 318 318 319 319 318 319 320 320 317 314 312 307 305 302 300 299 298 298 299 300 300 298
309 309 312 314 312 312 312 311 310 310 309 308 308 309 309 311 312 313 313 314 315 315 316 317 318 318 317 317 315 314 312 310 306 303 300 298 298 299 301 301 300 298 295 293
312 312 312 314 310 311 311 310 309 308 309 309 310 310 308 310 311 311 312 313 313 313 313 314 316 316 315 313 311 310 307 304 300 298 299 299 300 301 300 297 293 293 292 292
306 311 312 312 311 310 309 310 308 309 309 309 310 307 307 308 309 309 311 312 312 312 313 313 313 311 311 309 306 304 300 299 298 299 299 301 299 294 293 293 292 291 290 290
302 307 310 310 310 311 311 311 310 311 311 311 309 307 309 307 308 309 309 309 309 309 309 308 306 306 306 302 301 299 299 299 300 300 297 294 293 292 291 290 289 289 289 289
305 306 316 309 310 310 309 310 312 312 312 311 311 310 308 308 308 306 306 305 304 305 302 300 300 301 300 300 300 300 299 298 295 293 291 290 290 289 289 289 289 289 289 289
313 313 311 310 310 311 312 311 312 313 312 313 311 309 307 306 305 303 303 302 301 301 299 299 299 299 300 297 295 294 292 291 291 290 290 290 290 290 290 290 290 290 290 290
312 312 311 313 313 312 312 313 312 313 313 312 312 309 306 304 302 301 300 300 299 299 299 297 296 296 294 292 291 291 291 291 290 290 290 289 289 289 288 288 287 287 286 285
310 311 311 312 312 312 312 313 313 313 312 312 311 306 305 302 300 299 299 298 298 298 296 294 293 292 292 291 291 290 290 289 289 289 288 287 286 284 284 283 282 281 281 281
313 312 312 312 312 312 313 313 313 313 310 309 309 307 303 301 299 298 298 297 296 295 293 292 291 291 290 289 289 289 288 287 286 285 284 283 283 283 282 282 281 281 280 281
313 314 312 312 312 312 313 313 312 311 310 309 305 305 302 299 298 298 296 295 293 292 291 291 290 289 289 288 288 286 285 284 283 283 282 282 281 281 281 282 280 280 280 281
314 313 307 309 309 310 311 310 309 308 307 306 304 301 300 298 296 295 294 292 291 290 289 289 288 288 287 286 285 284 283 282 282 281 281 280 280 279 279 278 279 279 279 280
310 311 313 310 308 307 308 307 306 304 303 301 300 299 298 296 294 292 291 289 289 289 288 288 287 286 285 284 283 282 282 281 281 280 279 279 278 278 278 277 277 277 278 279
308 310 308 308 306 305 305 303 304 300 300 299 297 296 295 294 292 291 289 288 288 288 287 286 285 284 283 282 281 281 280 280 279 279 278 278 278 277 277 277 276 276 276 277
307 300 302 302 302 301 302 302 303 300 298 297 296 294 293 292 290 288 287 287 287 286 285 284 283 282 281 281 280 280 279 279 278 278 277 277 277 276 276 276 276 275 275 275
309 307 305 307 304 302 300 299 299 297 296 295 294 293 292 289 288 287 287 286 285 285 284 283 282 281 280 279 279 278 278 278 277 277 276 276 276 275 275 275 275 275 275 275
308 308 305 304 302 301 299 298 297 296 295 294 293 291 288 287 287 287 286 285 284 283 282 281 280 279 279 279 278 278 277 277 276 276 276 275 275 275 274 274 274 274 274 274
304 303 302 300 299 299 297 296 295 294 294 292 290 288 287 287 286 285 284 283 282 282 281 280 279 279 278 277 277 277 276 276 276 275 275 275 274 274 273 273 273 273 273 272
302 300 300 299 297 297 296 294 295 292 289 288 289 289 287 286 285 284 283 282 282 281 280 279 278 277 277 277 276 276 276 275 275 275 274 274 273 273 273 272 272 272 272 271
300 300 298 297 296 295 294 294 290 289 290 289 287 286 286 285 284 283 282 281 280 279 279 278 277 276 276 276 275 275 274 274 274 274 273 273 273 272 272 271 271 270 270 270
298 297 297 296 295 293 291 289 290 290 289 286 286 285 284 283 282 281 281 280 279 278 278 277 276 275 275 274 274 274 273 273 273 272 272 272 271 271 270 270 270 270 269 269
296 295 294 293 291 290 290 289 287 285 285 285 284 283 283 282 281 280 279 278 278 277 276 275 274 273 273 273 273 272 272 272 272 271 271 270 270 270 270 269 269 269 269 269
294 293 292 291 291 290 289 287 285 284 284 284 283 282 281 280 279 278 278 277 276 276 275 274 273 272 272 271 271 271 271 271 271 270 270 270 270 270 269 269 269 268 268 268
292 291 290 290 290 288 287 285 284 284 283 282 281 280 279 278 278 277 276 276 275 274 273 272 271 271 270 270 270 270 270 270 270 269 269 269 269 269 269 269 268 268 268 268
290 289 288 287 286 285 284 283 283 283 282 281 280 278 277 277 276 276 275 274 273 272 271 271 270 270 269 269 269 270 269 269 268 268 268 268 268 268 268 268 268 268 267 267
Wind_Speed
3 3 5 5 5 8 6 6 6 7 7 9 5 5 9 11 6 6 9 10 14 15 14 17 18 19 20 21 21 22 24 23 21 21 21 20 19 18 19 20 17 12 16 15
3 3 1 4 4 7 4 3 5 4 6 6 2 2 6 5 9 14 13 10 4 1 5 8 12 15 18 18 17 17 17 16 18 20 19 20 19 19 18 15 14 15 21 26
4 3 3 5 8 7 6 5 7 7 10 6 2 6 6 10 13 14 13 11 10 10 7 5 4 5 8 10 12 14 15 16 17 18 19 16 14 14 11 7 11 23 23 17
3 3 2 6 2 3 8 6 5 4 4 6 11 13 12 10 12 15 14 13 12 10 9 6 3 2 4 7 10 12 14 14 16 17 17 16 9 3 14 20 26 15 11 13
5 4 5 3 5 7 7 9 6 5 6 14 21 15 10 9 11 12 11 11 9 7 5 3 2 1 3 6 8 9 12 16 17 15 10 4 7 17 24 15 10 13 16 19
3 5 8 8 5 8 5 5 8 11 9 14 14 4 3 8 9 10 8 7 6 6 6 5 5 4 4 8 9 14 16 14 10 4 5 15 18 7 9 13 16 19 21 23
3 3 7 7 4 11 5 8 18 26 26 21 5 4 17 13 11 9 8 8 9 10 10 11 12 9 12 13 12 10 6 3 9 11 10 7 9 12 15 17 20 22 25 26
3 3 7 11 6 9 7 3 28 31 30 20 11 16 19 15 13 12 13 14 15 17 18 18 15 11 14 10 6 0 4 5 4 4 7 9 12 14 17 20 23 25 28 32
9 7 4 16 6 16 6 10 27 29 24 23 22 22 20 19 17 17 17 18 17 17 19 16 12 8 7 7 5 3 2 2 4 7 10 13 16 19 22 24 28 32 35 38
4 5 5 11 16 14 15 20 28 27 26 25 24 24 23 22 22 21 20 19 17 15 14 14 10 7 6 5 2 2 4 7 9 13 16 18 21 24 27 29 31 34 36 39
3 4 2 12 17 18 20 23 24 25 25 24 25 26 25 25 23 22 20 17 14 12 12 11 7 5 4 2 3 5 8 11 15 19 22 25 27 29 30 30 30 32 33 35
8 16 14 11 22 22 26 27 28 29 26 23 24 26 26 25 23 21 19 16 14 12 9 9 5 3 1 3 7 10 13 17 20 24 26 27 30 33 32 33 33 33 32 30
5 20 15 17 27 27 27 26 26 25 24 26 24 25 25 26 23 20 18 15 13 11 9 7 3 0 4 7 11 14 18 20 22 24 27 29 31 33 38 38 35 34 35 35
13 27 13 27 20 27 26 26 24 23 23 23 27 26 26 26 24 20 18 15 12 10 7 4 2 4 7 11 14 17 19 21 22 24 26 27 28 30 32 34 38 42 37 36
22 13 20 28 28 29 26 26 26 26 26 27 26 27 25 25 23 20 17 14 11 7 4 2 3 7 10 13 17 19 20 22 23 23 24 25 26 27 28 29 29 33 36 35
16 11 22 30 33 31 30 28 30 30 29 29 29 27 25 22 21 18 15 12 7 5 2 3 7 10 13 16 17 19 20 21 22 23 23 24 25 26 27 27 28 30 32 33
27 21 28 31 34 32 29 28 28 31 32 31 29 27 25 22 19 16 13 10 6 2 3 6 10 13 15 16 18 19 20 20 21 21 22 24 24 25 26 26 28 29 30 30
17 19 24 30 35 33 31 30 31 31 30 30 29 25 21 19 16 14 11 7 3 3 6 9 11 14 15 16 18 19 20 20 21 22 22 22 23 24 24 25 27 29 30 30
12 20 22 26 29 32 33 32 30 28 29 27 25 22 18 15 12 10 7 3 3 6 8 11 13 14 16 17 18 19 19 19 20 20 21 22 22 22 24 25 27 27 29 29
20 20 23 27 27 28 31 29 30 30 26 24 23 20 15 13 11 8 5 3 5 7 10 12 14 15 16 17 18 19 19 20 20 21 21 22 22 23 24 25 26 27 28 28
22 23 24 25 28 27 28 30 26 24 26 21 15 15 14 12 9 6 4 5 7 10 12 14 15 16 16 18 18 18 19 19 20 21 22 23 23 23 24 25 26 27 27 28
22 24 26 28 30 31 27 22 23 23 18 17 17 14 11 9 7 5 5 7 8 11 13 15 16 17 16 18 18 19 19 19 20 21 21 23 24 25 25 26 27 27 27 28
22 24 26 28 28 25 24 21 17 15 17 17 14 12 9 7 6 6 7 8 10 13 15 16 17 17 17 16 17 18 19 19 19 21 21 22 23 25 25 26 27 27 27 28
22 25 26 24 24 23 22 19 17 16 14 14 12 9 7 6 6 7 9 11 12 14 16 18 17 17 16 16 18 19 19 19 19 21 22 22 23 23 24 25 26 26 27 27
23 21 20 20 20 19 18 19 17 15 13 11 9 7 6 6 8 9 11 12 14 15 17 18 18 16 17 17 18 18 19 19 19 21 21 22 23 23 24 25 26 27 27 27
18 19 20 17 16 15 14 14 13 11 8 6 5 6 8 9 10 11 13 14 15 16 17 18 17 17 17 18 18 18 19 19 19 20 20 21 22 23 24 25 25 25 26 26
16 15 13 12 10 10 10 9 7 6 6 6 8 9 10 11 13 14 15 15 16 17 18 18 17 17 18 18 19 19 19 19 19 19 20 21 21 23 23 24 24 24 24 24
Wind_Direction
223 200 178 207 194 180 169 189 168 245 208 256 250 275 291 298 254 223 239 242 252 260 262 259 258 258 259 257 254 257 262 256 245 230 221 226 216 221 210 225 239 212 192 255
156 118 154 220 236 190 214 170 262 242 264 218 223 167 66 104 101 94 93 88 85 234 264 270 275 277 277 276 275 275 259 246 225 222 219 216 217 208 208 190 188 200 277 282
219 23 37 336 223 200 209 196 181 200 223 158 151 112 87 101 105 96 87 81 74 69 62 39 351 302 281 269 255 239 224 212 211 203 201 192 180 176 184 212 269 283 283 282
165 51 251 244 309 224 213 234 228 277 223 167 144 115 104 106 103 97 93 89 84 74 59 43 19 297 241 223 216 208 200 200 192 186 170 155 160 213 310 302 295 295 283 283
142 186 294 258 211 168 176 258 193 188 142 139 137 110 70 103 114 108 100 90 80 77 69 65 57 102 206 185 185 183 172 168 160 159 161 203 311 304 291 299 290 294 292 288
143 151 214 233 240 165 110 271 178 159 167 158 162 124 193 149 131 117 106 100 101 109 107 106 99 111 140 135 146 146 151 154 166 212 259 294 300 310 304 303 299 295 292 292
117 197 283 244 211 149 132 238 173 172 170 169 164 159 152 153 138 125 117 119 119 119 116 109 109 120 122 127 129 135 153 255 281 301 320 322 315 313 308 304 300 299 298 297
85 74 278 175 121 172 214 213 181 177 176 170 154 147 152 151 140 137 135 128 127 124 116 114 117 126 123 124 111 40 311 346 8 336 318 312 307 303 302 303 302 302 303 301
180 209 207 187 219 215 240 200 181 178 181 184 165 161 159 153 149 144 140 136 132 129 128 126 128 126 121 103 96 83 50 350 319 311 307 308 309 309 307 304 304 305 305 305
110 217 221 230 231 228 204 193 180 181 178 179 171 166 162 158 152 148 145 142 139 137 130 124 122 117 100 98 73 357 330 321 316 312 310 309 309 310 310 311 310 310 309 308
283 279 271 245 224 209 189 184 176 176 179 178 174 167 168 159 156 153 150 147 149 143 134 125 124 116 101 62 344 327 323 319 317 317 318 318 318 319 318 318 318 317 317 313
214 198 182 199 195 184 179 175 179 178 170 172 176 170 168 159 158 157 155 152 148 139 136 129 123 105 36 335 327 326 326 325 326 326 326 325 324 323 324 325 324 324 324 322
211 187 192 175 173 177 177 174 174 177 176 171 170 170 166 157 157 157 153 151 148 146 143 143 153 237 330 327 330 331 330 329 330 330 330 332 332 331 328 327 328 328 333 336
199 166 132 167 171 174 176 169 168 167 167 169 165 164 162 158 155 156 153 153 154 156 159 173 244 316 328 331 331 331 331 333 335 336 336 335 335 336 336 336 334 333 334 338
178 204 202 179 169 165 169 167 162 159 159 157 161 161 162 156 156 155 154 158 162 167 184 229 308 324 330 332 333 334 336 337 338 338 338 338 338 338 338 338 336 333 335 332
178 179 166 168 164 165 168 166 164 157 159 157 158 158 157 157 157 156 157 159 169 181 212 312 327 331 333 334 335 337 339 338 337 338 339 339 340 339 338 338 337 336 338 337
150 146 162 162 165 164 167 166 168 162 160 161 159 158 159 159 159 160 162 165 176 212 313 325 330 332 333 335 336 337 338 338 336 337 338 339 338 337 336 335 335 336 338 340
202 191 176 175 168 165 164 166 165 161 161 160 158 159 162 164 165 164 166 170 200 294 317 324 328 331 333 334 335 335 335 335 335 336 338 336 336 335 333 332 333 334 335 337
170 165 166 170 169 169 167 162 162 160 158 160 161 160 162 164 166 168 174 195 279 302 320 325 328 330 329 330 331 331 332 334 334 334 335 334 333 334 333 333 334 334 333 334
149 157 161 165 169 167 159 158 156 157 159 163 163 161 164 172 178 184 196 239 278 306 318 323 325 326 326 326 329 330 332 332 332 332 332 331 333 334 335 335 334 333 333 333
155 157 158 158 157 160 158 159 160 154 158 160 164 179 183 181 182 198 233 270 301 311 320 323 324 322 322 324 326 328 329 329 330 331 331 331 334 334 335 334 335 334 333 333
157 158 159 160 159 157 158 151 152 152 156 171 184 185 185 190 200 231 269 290 303 311 318 319 319 319 320 322 325 327 328 329 329 330 330 331 333 334 335 335 334 334 333 332
156 157 159 157 153 147 141 150 156 170 182 181 184 188 193 206 228 258 279 294 301 306 312 317 318 319 320 324 324 324 325 327 327 328 330 331 332 333 333 334 334 332 332 332
149 150 148 147 146 147 151 158 172 173 178 180 188 196 211 232 256 283 294 296 301 307 313 317 318 317 316 319 320 321 323 325 325 326 328 329 331 331 332 332 332 332 331 331
137 135 137 146 153 158 167 172 179 181 185 191 199 217 246 275 289 292 290 294 298 304 311 315 314 309 309 314 318 319 320 321 322 322 324 327 328 330 332 333 332 331 331 331
142 144 151 161 165 168 178 186 190 189 193 211 241 274 291 294 295 294 292 293 298 306 310 314 312 306 307 312 317 318 319 319 319 319 322 325 327 329 330 331 331 331 332 332
144 152 155 152 155 168 172 178 190 208 232 261 282 292 294 295 291 289 290 295 302 307 311 313 312 307 306 309 313 315 316 317 316 318 320 324 325 327 328 330 332 332 333 334